Location: Camaret
(48.2753°N, 4.5961°W)
Time: 04:39:13
(UTC+00:00)

Cosmos 1953 - Pass Details

Date: 29 October 2020
Orbit: 540 x 556 km, 82.5° (Epoch: 01 December)

Event Time Altitude Azimuth Distance (km) Brightness Sun altitude
Rises 17:34:36 0° 214° (SSW) 2,688 6.7 -5.8°
Reaches altitude 10° 17:36:57 10° 225° (SW) 1,802 6.0 -6.1°
Maximum altitude 17:40:27 30° 287° (WNW) 996 4.4 -6.7°
Drops below altitude 10° 17:44:00 10° 350° (N) 1,820 5.0 -7.3°
Sets 17:46:23 0° 1° (N) 2,720 5.7 -7.7°
